{"data":{"norad_id":87690,"intl_designator":"","name":"UNKNOWN","alt_names":[],"object_type":"UNKNOWN","status":"UNKNOWN","operator":null,"country":null,"launch_date":null,"launch_site_code":null,"launch_vehicle":null,"mission":null,"orbit_class":"UNKNOWN","rcs_meters":null,"size_class":null,"mass_kg":null,"dimensions":null,"purposes":[],"wikipedia_slug":null,"has_3d_model":false,"image_url":null,"decayed_at":null,"tle_current":{"epoch":"2026-05-23T16:35:39.164928Z","epoch_age_seconds":184063,"freshness":"STALE","line1":"1 87690U          26143.69142552  .00001320  00000+0  19961-3 0  9994","line2":"2 87690  65.7902 292.1732 0584534 324.9008  31.4819 14.02401847630075","mean_motion":14.02401847,"eccentricity":0.0584534,"inclination_deg":65.7902,"raan_deg":292.1732,"arg_perigee_deg":324.9008,"mean_anomaly_deg":31.4819,"bstar":0.00019961,"rev_number":63007,"period_min":102.68098284956,"perigee_km":460.90615296601,"apogee_km":1310.073522988,"semimajor_km":7263.626837977,"source":"CELESTRAK","updated_at":"2026-05-25T13:38:11.676624Z"}}}